Printer-friendly version

IAU Minor Planet Center

Minor Planet Center

MPEC 2008-C100: 2008 CG119

The following Minor Planet Electronic Circular may be linked-to from your own Web pages, but must not otherwise be redistributed electronically.


Read MPEC 2008-C99 Read MPEC 2008-C101


M.P.E.C. 2008-C100                               Issued 2008 Feb. 14, 19:57 UT

     The Minor Planet Electronic Circulars contain information on unusual
         minor planets and routine data on comets.  They are published
   on behalf of Commission 20 of the International Astronomical Union by the
          Minor Planet Center, Smithsonian Astrophysical Observatory,
                          Cambridge, MA 02138, U.S.A.

             Prepared using the Tamkin Foundation Computer Network

                              MPC@CFA.HARVARD.EDU
          URL http://www.cfa.harvard.edu/iau/mpc.html  ISSN 1523-6714

                                  2008 CG119

Observations:
     K08CB9G* C2008 02 13.42731 04 11 40.59 -48 17 43.8          18.7 V EC100E12
     K08CB9G  C2008 02 13.43825 04 11 45.42 -48 17 55.1          18.6 V EC100E12
     K08CB9G  C2008 02 13.44916 04 11 50.42 -48 18 06.6          18.6 V EC100E12
     K08CB9G  C2008 02 13.46005 04 11 55.28 -48 18 16.9          19.1 V EC100E12
     K08CB9G  C2008 02 13.46850 04 11 59.02 -48 18 24.8          19.6 V EC100E12
     K08CB9G  C2008 02 13.47584 04 12 02.34 -48 18 31.8          19.0 V EC100E12
     K08CB9G  C2008 02 13.48319 04 12 05.61 -48 18 39.8          18.9 V EC100E12
     K08CB9G  C2008 02 13.49050 04 12 08.89 -48 18 45.8          18.8 V EC100E12
     K08CB9G  C2008 02 13.50788 04 12 16.70 -48 19 02.7          18.5 V EC100E12
     K08CB9G  C2008 02 13.50843 04 12 16.99 -48 19 03.2          19.0 V EC100E12
     K08CB9G  C2008 02 13.50896 04 12 17.28 -48 19 04.7          19.0 V EC100E12
     K08CB9G  C2008 02 13.50948 04 12 17.46 -48 19 04.6          19.3 V EC100E12
     K08CB9G  C2008 02 13.51086 04 12 18.10 -48 19 05.4          18.9 V EC100E12
     K08CB9G  C2008 02 13.53600 04 12 29.37 -48 19 29.4          19.2 V EC100E12
     K08CB9G  C2008 02 13.54800 04 12 34.81 -48 19 40.6          18.6 V EC100E12
     K08CB9G  C2008 02 14.43102 04 19 07.28 -48 33 54.9          18.8 V EC100E12
     K08CB9G  C2008 02 14.43167 04 19 07.53 -48 33 55.6          18.5 V EC100E12
     K08CB9G  C2008 02 14.43230 04 19 07.75 -48 33 56.4          18.3 V EC100E12
     K08CB9G  C2008 02 14.43359 04 19 08.36 -48 33 55.4          18.6 V EC100E12

Observer details:
E12 Siding Spring Survey.  Observer G. J. Garradd.  Measurers E. C. Beshore,
    A. Boattini, G. J. Garradd, A. R. Gibbs, A. D. Grauer, R. E. Hill,
    R. A. Kowalski, S. M. Larson, R. H. McNaught.  0.5-m Uppsala Schmidt + CCD.

Orbital elements:
2008 CG119                                               Earth MOID = 0.0680 AU
Epoch 2007 Oct. 27.0 TT = JDT 2454400.5                 MPC
M 326.99777              (2000.0)            P               Q
n   0.46993039     Peri.  148.39113     -0.11825395     -0.82259071
a   1.6385022      Node   302.13019     +0.71761766     +0.31635271
e   0.4691363      Incl.   41.05594     +0.68632420     -0.47250977
P   2.10           H   19.0           G   0.15           U   9
Residuals in seconds of arc
080213 E12  0.0   0.1+    080213 E12  0.2-  0.6+    080213 E12  0.2-  0.2-
080213 E12  0.7-  0.1-    080213 E12  0.3-  0.3+    080214 E12  0.1+  0.2-
080213 E12  0.5+  0.7-    080213 E12  0.1+  0.3+    080214 E12  0.1-  0.4-
080213 E12  0.3+  0.1-    080213 E12  0.7+  0.7-    080214 E12  0.4-  0.7-
080213 E12  0.2-  0.3+    080213 E12  0.1+  0.1-    080214 E12  0.4+  1.3+
080213 E12  0.1+  0.4+    080213 E12  0.3+  0.4+
080213 E12  0.2-  0.4-    080213 E12  0.4-  0.1-

Ephemeris:
2008 CG119               a,e,i = 1.64, 0.47, 41                  q = 0.8698
Date    TT    R. A. (2000) Decl.     Delta      r     Elong.  Phase     V
2008 02 14    04 16.02   -48 27.2    0.262    0.998    84.7    80.2    18.9
2008 02 24    05 07.74   -49 29.3    0.390    1.059    89.2    69.1    19.5
2008 03 05    05 37.94   -49 15.3    0.514    1.125    91.0    61.8    20.0
2008 03 15    06 01.46   -48 39.4    0.630    1.195    91.9    56.3    20.4
2008 03 25    06 23.22   -47 55.8    0.739    1.266    92.4    51.9    20.8
2008 04 04    06 45.11   -47 09.6    0.840    1.337    92.8    48.3    21.1
2008 04 14    07 08.00   -46 24.3    0.936    1.408    93.1    45.4    21.3
2008 04 24    07 32.10   -45 42.5    1.027    1.477    93.2    42.8    21.6
2008 05 04    07 57.40   -45 05.0    1.117    1.544    93.1    40.7    21.8
2008 05 14    08 23.83   -44 32.8    1.205    1.610    92.8    38.8    22.0

Sonia Keys                   (C) Copyright 2008 MPC           M.P.E.C. 2008-C100

Read MPEC 2008-C99 Read MPEC 2008-C101


Our Web policy. Index to the CBAT/MPC/ICQ pages.


Valid HTML 4.01!